Weather History for KMRY - April, 2013

Change the Weather History Date:

Wednesday, April 3, 2013

  Actual Average Record
Temperature  
Mean Temperature 56 °F 53 °F  
Max Temperature 66 °F 61 °F 68 °F (2004)
Min Temperature 45 °F 46 °F 41 °F (2015)
Degree Days  
Heating Degree Days 9    
Month to date heating degree days 31  
Since 1 July heating degree days 2681  
Cooling Degree Days 0    
Month to date cooling degree days 0  
Year to date cooling degree days 0  
Growing Degree Days 3 (Base 50)    
Moisture  
Dew Point 47 °F    
Average Humidity 84    
Maximum Humidity 100    
Minimum Humidity 67    
Precipitation  
Precipitation 0.00 in - 0.59 in (1998)
Month to date precipitation 0.10  
Year to date precipitation 2.89  
Since 1 July precipitation 11.13  
Sea Level Pressure  
Sea Level Pressure 30.13 in    
Wind  
Wind Speed 4 mph (SW)    
Max Wind Speed 17 mph    
Max Gust Speed 24 mph    
Visibility 5 miles    
Events Fog    
T = Trace of Precipitation, MM = Missing Value Source: NWS Daily Summary

Daily Weather History Graph

Daily Weather History Graph

Search for Another Location

Airport or City:

Trip Planner

Search our weather history database for the weather conditions in past years. The results will help you decide how hot, cold, wet, or windy it might be!

Date:

Astronomy

Apr. 03, 2013 Rise Set
Actual Time 6:49 AM PDT 7:31 PM PDT
Civil Twilight 6:23 AM PDT 7:57 PM PDT
Nautical Twilight 5:53 AM PDT 8:28 PM PDT
Astronomical Twilight 5:21 AM PDT 9:00 PM PDT
Moon 2:24 AM PDT (4/3) 12:59 PM PDT (4/3)
Length of Visible Light 13h 33m
Length of Day
12h 41m
Last Quarter, 43% of the Moon is Illuminated
Apr 3
Last Quarter
Apr 10
New
Apr 18
First Quarter
Apr 25
Full
May 2
Last Quarter

Hourly Weather History & Observations

Time (PDT) Temp. Windchill Dew Point Humidity Pressure Visibility Wind Dir Wind Speed Gust Speed Precip Events Conditions
12:14 AM 51.8 °F - 48.2 °F 88% 30.12 in 10.0 mi Calm Calm - N/A   Scattered Clouds
12:54 AM 50.0 °F - 46.9 °F 89% 30.18 in 10.0 mi Calm Calm - N/A   Clear
1:38 AM 48.2 °F - 46.4 °F 93% 30.14 in 10.0 mi Calm Calm - N/A   Scattered Clouds
1:46 AM 48.2 °F - 46.4 °F 93% 30.14 in 8.0 mi SSW 3.5 mph - N/A   Mostly Cloudy
1:54 AM 48.9 °F - 46.9 °F 93% 30.18 in 5.0 mi Calm Calm - N/A   Mostly Cloudy
1:59 AM 48.2 °F - 46.4 °F 93% 30.14 in 2.5 mi Calm Calm - N/A   Overcast
2:21 AM 48.2 °F - 46.4 °F 93% 30.14 in 8.0 mi Calm Calm - N/A   Overcast
2:27 AM 48.2 °F - 46.4 °F 93% 30.14 in 1.8 mi Calm Calm - N/A   Overcast
2:37 AM 48.2 °F - 48.2 °F 100% 30.13 in 0.5 mi Calm Calm - N/A Fog Fog
2:41 AM 48.2 °F - 48.2 °F 100% 30.13 in 0.2 mi Calm Calm - N/A Fog Fog
2:54 AM 48.0 °F - 48.0 °F 100% 30.17 in 0.5 mi Calm Calm - N/A Fog Fog
3:46 AM 46.4 °F 44.3 °F 46.4 °F 100% 30.12 in 1.5 mi East 4.6 mph - N/A   Overcast
3:54 AM 46.0 °F 43.9 °F 45.0 °F 96% 30.16 in 1.5 mi East 4.6 mph - N/A   Overcast
3:57 AM 46.4 °F 44.3 °F 44.6 °F 93% 30.12 in 3.0 mi East 4.6 mph - N/A   Overcast
4:17 AM 46.4 °F 45.2 °F 46.4 °F 100% 30.11 in 1.8 mi ENE 3.5 mph - N/A   Overcast
4:28 AM 46.4 °F 45.2 °F 46.4 °F 100% 30.11 in 0.2 mi East 3.5 mph - N/A Fog Fog
4:43 AM 46.4 °F - 46.4 °F 100% 30.11 in 0.2 mi Calm Calm - N/A Fog Fog
4:54 AM 46.9 °F - 46.9 °F 100% 30.15 in 0.2 mi Calm Calm - N/A Fog Fog
5:08 AM 44.6 °F - 44.6 °F 100% 30.11 in 1.2 mi Calm Calm - N/A   Overcast
5:10 AM 44.6 °F - 44.6 °F 100% 30.10 in 5.0 mi Calm Calm - N/A   Overcast
5:30 AM 46.4 °F - 44.6 °F 93% 30.10 in 1.5 mi Calm Calm - N/A   Overcast
5:42 AM 44.6 °F - 44.6 °F 100% 30.10 in 2.5 mi Calm Calm - N/A   Overcast
5:49 AM 46.4 °F - 44.6 °F 93% 30.10 in 9.0 mi Calm Calm - N/A   Mostly Cloudy
5:54 AM 46.0 °F - 45.0 °F 96% 30.15 in 4.0 mi Calm Calm - N/A   Overcast
6:24 AM 46.4 °F - 44.6 °F 93% 30.11 in 2.5 mi Calm Calm - N/A   Overcast
6:38 AM 44.6 °F - 44.6 °F 100% 30.11 in 8.0 mi Calm Calm - N/A   Overcast
6:54 AM 45.0 °F 43.5 °F 44.1 °F 97% 30.15 in 2.0 mi East 3.5 mph - N/A   Overcast
6:57 AM 46.4 °F - 44.6 °F 93% 30.11 in 0.8 mi Calm Calm - N/A   Overcast
7:20 AM 46.4 °F - 46.4 °F 100% 30.12 in 0.5 mi Calm Calm - N/A Fog Fog
7:54 AM 46.9 °F - 46.9 °F 100% 30.17 in 0.2 mi Calm Calm - N/A Fog Fog
8:27 AM 46.4 °F - 46.4 °F 100% 30.14 in 1.0 mi Calm Calm - N/A   Overcast
8:31 AM 46.4 °F - 46.4 °F 100% 30.14 in 3.0 mi Calm Calm - N/A   Overcast
8:36 AM 46.4 °F - 46.4 °F 100% 30.14 in 1.8 mi Calm Calm - N/A   Overcast
8:54 AM 48.0 °F - 46.9 °F 96% 30.18 in 1.5 mi Calm Calm - N/A   Overcast
9:10 AM 48.2 °F - 48.2 °F 100% 30.14 in 2.5 mi Calm Calm - N/A   Overcast
9:26 AM 48.2 °F - 48.2 °F 100% 30.14 in 1.0 mi Calm Calm - N/A   Overcast
9:49 AM 50.0 °F - 48.2 °F 94% 30.13 in 3.0 mi Calm Calm - N/A   Overcast
9:54 AM 50.0 °F - 48.9 °F 96% 30.17 in 6.0 mi Calm Calm - N/A   Overcast
10:43 AM 55.4 °F - 50.0 °F 82% 30.13 in 10.0 mi Calm Calm - N/A   Overcast
10:54 AM 54.0 °F - 50.0 °F 86% 30.17 in 9.0 mi West 3.5 mph - N/A   Mostly Cloudy
11:16 AM 55.4 °F - 50.0 °F 82% 30.13 in 9.0 mi West 4.6 mph - N/A   Partly Cloudy
11:54 AM 57.9 °F - 50.0 °F 75% 30.16 in 8.0 mi WNW 4.6 mph - N/A   Partly Cloudy
12:54 PM 57.9 °F - 51.1 °F 78% 30.13 in 8.0 mi NW 4.6 mph - N/A   Clear
1:54 PM 62.1 °F - 52.0 °F 70% 30.09 in 9.0 mi NW 4.6 mph - N/A   Clear
2:54 PM 57.9 °F - 51.1 °F 78% 30.09 in 8.0 mi WNW 6.9 mph - N/A   Clear
3:54 PM 60.1 °F - 51.1 °F 72% 30.08 in 10.0 mi SW 12.7 mph - N/A   Partly Cloudy
4:54 PM 55.0 °F - 48.9 °F 80% 30.08 in 10.0 mi SW 12.7 mph 19.6 mph N/A   Scattered Clouds
5:12 PM 53.6 °F - 48.2 °F 82% 30.05 in 10.0 mi WSW 13.8 mph 21.9 mph N/A   Mostly Cloudy
5:54 PM 52.0 °F - 48.9 °F 89% 30.09 in 10.0 mi SW 6.9 mph - N/A   Overcast
6:54 PM 52.0 °F - 48.9 °F 89% 30.11 in 10.0 mi WSW 6.9 mph - N/A   Overcast
7:54 PM 52.0 °F - 48.9 °F 89% 30.10 in 10.0 mi Calm Calm - N/A   Overcast
8:54 PM 52.0 °F - 48.9 °F 89% 30.11 in 10.0 mi SSW 3.5 mph - N/A   Overcast
9:54 PM 51.1 °F - 48.0 °F 89% 30.10 in 10.0 mi East 5.8 mph - N/A   Overcast
10:54 PM 51.1 °F - 48.0 °F 89% 30.10 in 10.0 mi SSE 3.5 mph - N/A   Overcast
11:54 PM 51.1 °F - 48.0 °F 89% 30.12 in 10.0 mi WSW 8.1 mph - N/A   Overcast